sat.trackr.live / text

‹ back to catalog

ONEWEB-0597

NORAD 54663 · 2022-166X

PAYLOAD ACTIVE UNKNOWN

§ Identity

Operator
Country
UK
Launch date
2022-12-08
Launch site
AFETR
Launch vehicle
Mass (kg)
RCS (m²)

Purposes: comms

External: N2YO · Heavens-Above · Gunter

§ Orbital elements

Epoch: 2026-05-24T19:43:21.346176Z

Period
108.94 min
Inclination
87.9252°
Eccentricity
0.0002077
Mean motion
13.21824387 rev/d
Perigee alt
1,176.2 km
Apogee alt
1,179.3 km
Semi-major
7,555.9 km
B*
-2.6333e-4
RAAN
248.6369°
Arg perigee
98.1390°
Mean anomaly
261.9980°
Rev number
16,845

§ Raw data

ONEWEB-05971 54663U 22166X   26144.82177484 -.00000096  00000+0 -26333-3 0  99952 54663  87.9252 248.6369 0002077  98.1390 261.9980 13.21824387168451

JSON: /api/v1/satellites/54663 · /tle

For live sub-satellite position, see the globe view (requires WebGL).

§ Visibility from observer

Set your observer location to see the next 7 days of passes ≥ 10°. The values pass through the URL so the page stays shareable.

No JS? Fill the form by hand. The geolocation button needs JavaScript.